Lexington Weather

Lexington, Massachusetts, USA

44°F
5/12/2021 4:52am 
  • Lexington Conditions: Clear
  • Temperature: 44.4°F / 6.9°CColder 0.2°F than last hour.
  • Dew Point: 33.4°FIncreased 1.0°Fsince last hour.
  • Relative Humidity: 65%Increased 3.0% since last hour.
  • Wind: Wind from WNW WNW Calm, 10-min avg: 1 mph, gust: 4 mph
  • Barometer: 29.93 inRising 0.02  inHg/hr Rising Slowly
  • Visibility: 10 miles
  • Rain Today: 0.00 in
  •   

Regional Weather Roundup
for Boston / Norton, MA

        
000
ASUS41 KBOX 110004
RWRBOX

REGIONAL WEATHER ROUNDUP
NATIONAL WEATHER SERVICE BOSTON/NORTON MA
800 PM EDT MON MAY 10 2021

NOTE:  "FAIR" INDICATES FEW OR NO CLOUDS BELOW 12,000 FEET WITH NO 
SIGNIFICANT WEATHER AND/OR OBSTRUCTIONS TO VISIBILITY.

MAZALL-110100-
EASTERN MASSACHUSETTS
  
CITY           SKY/WX    TMP DP  RH WIND       PRES   REMARKS
BOSTON         MOCLDY    56  44  64 SE5       29.89R                  
6HR MIN TEMP:  55; 6HR MAX TEMP:  63;                                

BEVERLY        CLOUDY    54  43  66 S7        29.88R                  
LAWRENCE       PTCLDY    57  42  57 VRB5      29.88R                  
BEDFORD        MOCLDY    57  45  64 S6        29.86S                  
BLUE HILL        N/A     55  44  66 S9        29.88R                  
NORWOOD        CLOUDY    57  47  69 S6        29.88R                  
MARSHFIELD     CLEAR     54  46  76 CALM      29.89S                  
PLYMOUTH       CLEAR     52  43  71 SW5       29.89R                  
TAUNTON        CLEAR     53  44  71 SW5       29.90R                  
NEW BEDFORD    CLEAR     51  45  79 CALM      29.90R                  
$$

MAZALL-110100-
CAPE COD AND THE ISLANDS
  
CITY           SKY/WX    TMP DP  RH WIND       PRES   REMARKS
FALMOUTH       CLEAR     52  45  76 W9        29.90S                  
HYANNIS        CLEAR     52  44  74 S3        29.90R                  
CHATHAM        CLEAR     50  42  74 CALM      29.91R                  
PROVINCETOWN   CLEAR     50  44  80 S3        29.91R                  
NANTUCKET      CLEAR     48  43  82 S7        29.92R                  
MARTHAS VNYRD  CLEAR     50  44  80 SW5       29.91R                  
$$
 
MAZALL-110100-
CENTRAL AND WESTERN MASSACHUSETTS
  
CITY           SKY/WX    TMP DP  RH WIND       PRES   REMARKS
WORCESTER      CLOUDY    54  41  61 W6        29.89R                  
6HR MIN TEMP:  54; 6HR MAX TEMP:  59;                                

FITCHBURG      MOCLDY    59  43  55 S5        29.87S                  
ORANGE         CLOUDY    57  44  62 SW5       29.90R                  
SPRINGFIELD    MOCLDY    58  42  55 NW9       29.89R                  
WESTFIELD      CLOUDY    57  44  62 W3        29.90R                  
NORTH ADAMS    CLOUDY    54  43  66 W5        29.92R                  
PITTSFIELD     CLOUDY    49  45  86 SW8       29.92R                  
$$
 
RIZALL-110100-
RHODE ISLAND
  
CITY           SKY/WX    TMP DP  RH WIND       PRES   REMARKS
PROVIDENCE     PTCLDY    53  46  77 SW6       29.91R                  
6HR MIN TEMP:  53; 6HR MAX TEMP:  61;                                

NEWPORT        MOCLDY    52  45  77 VRB3      29.91R                  
BLOCK ISLAND   PTCLDY    50  46  86 SW9       29.93R                  
SMITHFIELD     CLEAR     52  49  89 SW6       29.90R                  
WESTERLY       MOCLDY    51  46  83 SW7       29.92R                  
$$
 
CTZALL-110100-
CONNECTICUT
  
CITY           SKY/WX    TMP DP  RH WIND       PRES   REMARKS
BRADLEY INTL   MOCLDY    57  42  57 NW7       29.91R                  
6HR MIN TEMP:  57; 6HR MAX TEMP:  63;                                

HARTFORD       CLOUDY    60  42  51 W8        29.92R                  
BRIDGEPORT     MOCLDY    58  44  60 NW8       29.94R                  
DANBURY        MOCLDY    56  42  59 W3        29.95R                  
GROTON         CLEAR     50  47  89 S5        29.92R                  
NEW HAVEN      MOCLDY    59  45  59 NW7       29.94R                  
CHESTER        MOCLDY    54  46  76 SW3       29.93R                  
MERIDEN        CLOUDY    58  42  55 W3        29.93R                  
WILLIMANTIC    CLOUDY    55  46  71 SW6       29.91R                  
OXFORD         CLOUDY    53  44  71 W3        29.95R                  
$$

MEZ002-015-021-024-NHZ003-005-008-011-012-014-VTZ005-008-110100-
NORTHERN NEW ENGLAND
  
CITY           SKY/WX    TMP DP  RH WIND       PRES   REMARKS
PORTLAND ME    PTCLDY    52  43  71 S9        29.86R                  
6HR MIN TEMP:  52; 6HR MAX TEMP:  61;                                

BANGOR ME      CLOUDY    54  41  61 SE7       29.84R                  
CONCORD NH     CLOUDY    60  38  43 S5        29.85R                  
MANCHESTER NH  MOCLDY    61  41  47 S7        29.84R                  
NASHUA NH      MOCLDY    59  45  59 CALM      29.87S                  
PORTSMOUTH NH  PTCLDY    54  40  59 S7        29.87R                  
JAFFREY NH     CLOUDY    57  42  57 SW3       29.88R                  
KEENE NH       CLOUDY    55  45  68 SE3       29.88R                  
BURLINGTON VT  MOCLDY    58  37  45 NW7       29.88R                  
MT. WASHINGTON NOT AVBL                                               
$$

NYZ052-076-110100-
EASTERN NEW YORK
  
CITY           SKY/WX    TMP DP  RH WIND       PRES   REMARKS
ALBANY         MOCLDY    52  39  61 W8        29.94R                  
6HR MIN TEMP:  52; 6HR MAX TEMP:  58; 6HR PCP: TRACE;                

NEW YORK CITY  MOCLDY    58  40  51 NW14      29.96R                  
6HR MIN TEMP:  58; 6HR MAX TEMP:  60;                                

$$
 
ANZALL-110100-
MARINE OBSERVATIONS
  
STATION/POSITION TIME  TEMP    WIND        PRES    VSBY  WAVE
                       AIR SEA DIR/SP/G                  HT/PER
                 (UTC) (F)     (DEG/KT/KT) (MB)    (MI)  (FT/S)
BOSTON BUOY      2340   50 49  160/ 10/ 10 1012.0R
BUZZARDS BAY     2300          250/ 11/ 11 1013.6R
NANTUCKET SOUND  2340      53                N/A
MASS BAY-STELLWA 2304   51     180/ 10/ 12 1010.7R  1 7/8  1/ 3
ISLE OF SHOALS   2300   52     170/ 18/ 19 1010.7R
S OF BLOCK IS    2326      50                N/A           7/ 8
$$

......................KEY.........................
  SKY/WX - SKY CONDITION/PRESENT WEATHER
  TMP    - TEMPERATURE IN FAHRENHEIT
  DWPT   - DEWPOINT IN FAHRENHEIT
  RH     - RELATIVE HUMIDITY IN PERCENT
  WIND   - DIRECTION AND SPEED IN MPH
  PRES   - MEAN SEA LEVEL PRESSURE IN INCHES OF HG
  WCI    - WIND CHILL INDEX
  VSB    - VISIBILITY IN MILES
  HX     - HEAT INDEX
  TC     - TEMPERATURE IN CELSIUS
  VRB    - VARIABLE WIND DIRECTION
  N/A    - NOT AVAILABLE
  
      

Other recent Regional Weather Roundups

Wed May 12, 4:04am

Wed May 12, 3:04am

Wed May 12, 2:04am

Wed May 12, 1:04am

Wed May 12, 12:05am

Tue May 11, 11:05pm

Tue May 11, 10:04pm

Tue May 11, 9:05pm

Tue May 11, 8:05pm

Tue May 11, 7:04pm

Tue May 11, 6:04pm

Tue May 11, 5:04pm

Tue May 11, 4:05pm

Tue May 11, 3:04pm

Tue May 11, 2:05pm

Tue May 11, 1:04pm

Tue May 11, 12:05pm

Tue May 11, 11:05am

Tue May 11, 10:04am

Tue May 11, 9:04am

Tue May 11, 8:04am

Tue May 11, 7:05am

Tue May 11, 6:04am

Tue May 11, 5:04am

Tue May 11, 4:04am

Tue May 11, 3:04am

Tue May 11, 2:04am

Tue May 11, 1:04am

Tue May 11, 12:04am

Mon May 10, 11:04pm

Mon May 10, 10:04pm

Mon May 10, 9:05pm

Mon May 10, 7:05pm

Mon May 10, 6:04pm

Mon May 10, 5:04pm

Mon May 10, 4:04pm

Mon May 10, 3:04pm

Mon May 10, 2:04pm

Mon May 10, 1:04pm

Mon May 10, 12:04pm

Mon May 10, 11:05am

Mon May 10, 10:04am

Mon May 10, 9:04am

Mon May 10, 8:04am

Mon May 10, 7:04am

Mon May 10, 6:04am

Mon May 10, 5:05am

Mon May 10, 4:04am

Mon May 10, 3:04am

Mon May 10, 2:04am

Mon May 10, 1:04am

Mon May 10, 12:04am

Sun May 9, 11:04pm

Sun May 9, 10:04pm

Sun May 9, 9:04pm

Sun May 9, 8:04pm

Sun May 9, 7:05pm

Sun May 9, 6:04pm

Sun May 9, 5:04pm

Sun May 9, 4:04pm

Sun May 9, 3:04pm

Sun May 9, 2:04pm

Sun May 9, 1:05pm

Sun May 9, 12:04pm

Sun May 9, 11:05am

Sun May 9, 10:04am

Sun May 9, 9:04am

Sun May 9, 8:04am

Sun May 9, 7:04am

Sun May 9, 6:04am

Sun May 9, 5:04am

Sun May 9, 4:04am

Sun May 9, 3:04am

Sun May 9, 2:04am

Sun May 9, 1:05am

Sun May 9, 12:04am

Sat May 8, 11:05pm

Sat May 8, 10:04pm

Sat May 8, 9:05pm

Sat May 8, 8:04pm

Sat May 8, 7:04pm

Sat May 8, 6:04pm

Sat May 8, 5:05pm

Sat May 8, 4:04pm

Sat May 8, 3:05pm

Sat May 8, 2:05pm

Sat May 8, 1:05pm

Sat May 8, 12:04pm

Sat May 8, 11:05am

Sat May 8, 10:04am

Sat May 8, 9:04am

Sat May 8, 8:04am

Sat May 8, 7:04am

Sat May 8, 6:04am

Sat May 8, 5:04am

Sat May 8, 4:04am

Sat May 8, 3:04am

Sat May 8, 2:04am

Sat May 8, 1:05am

Sat May 8, 12:04am

Fri May 7, 11:04pm

Fri May 7, 10:05pm

Fri May 7, 9:04pm

Fri May 7, 8:04pm

Fri May 7, 7:05pm

Fri May 7, 6:04pm

Fri May 7, 5:05pm

Fri May 7, 4:04pm

Fri May 7, 3:04pm

Fri May 7, 2:05pm

Fri May 7, 1:04pm

Fri May 7, 12:04pm

Fri May 7, 11:05am

Fri May 7, 10:04am

Fri May 7, 9:04am

Fri May 7, 8:05am

Fri May 7, 7:04am

Fri May 7, 6:04am

Fri May 7, 5:04am

Fri May 7, 4:04am

Fri May 7, 3:04am

Fri May 7, 2:05am

Fri May 7, 1:04am

Fri May 7, 12:05am

Thu May 6, 11:04pm

Thu May 6, 10:04pm

Thu May 6, 9:05pm

Thu May 6, 8:04pm

Thu May 6, 7:04pm

Thu May 6, 6:04pm

Thu May 6, 5:05pm

Thu May 6, 4:04pm

Thu May 6, 3:04pm

Thu May 6, 2:05pm

Thu May 6, 1:04pm

Thu May 6, 12:04pm

Thu May 6, 11:04am

Thu May 6, 10:04am

Thu May 6, 9:04am

Thu May 6, 8:04am

Thu May 6, 7:04am

Thu May 6, 6:04am

Thu May 6, 5:04am

Thu May 6, 4:04am

Thu May 6, 3:04am

Thu May 6, 2:05am

Thu May 6, 1:04am

Thu May 6, 12:05am

Wed May 5, 11:04pm

Wed May 5, 10:04pm

Wed May 5, 9:05pm

Wed May 5, 8:04pm

Wed May 5, 7:05pm

Wed May 5, 6:04pm

Wed May 5, 5:04pm

Wed May 5, 4:04pm

Wed May 5, 3:04pm

Wed May 5, 2:05pm

Wed May 5, 1:05pm

Wed May 5, 12:04pm

Wed May 5, 11:05am

Wed May 5, 10:04am

Wed May 5, 9:04am

Wed May 5, 8:04am

Wed May 5, 7:04am

Wed May 5, 6:05am

Wed May 5, 5:04am

Meta data:

ID: 8e4e6b83-9a17-488d-9994-853f836eab68
Link: https://api.weather.gov/products/8e4e6b83-9a17-488d-9994-853f836eab68